"read_dt","SO2 (ppb)","flags","PMT voltage (V)","lamp voltage (V)","lamp intensity (Hz)","internal temp (C)","react chamber temp (C)","sample flow (l/min)","pres (mmHg)","SO2 bkg (ppb)","SO2 coefficient"
2015-09-28 00:00:00,1953E-3,5C000400,-0724,0825,12211,027.3,045.4,0.258,751.1,01.17,0.508
2015-09-28 00:01:00,1957E-3,5C000400,-0724,0825,12196,027.3,045.4,0.258,751.0,01.17,0.508
2015-09-28 00:02:00,1983E-3,5C000400,-0724,0825,12286,027.3,045.4,0.257,751.2,01.17,0.508
2015-09-28 00:03:00,1899E-3,5C000400,-0724,0826,12181,027.3,045.4,0.257,751.1,01.17,0.508
2015-09-28 00:04:00,1989E-3,5C000400,-0724,0825,12337,027.3,045.4,0.257,751.0,01.17,0.508
2015-09-28 00:05:00,2043E-3,5C000400,-0724,0826,12196,027.4,045.4,0.257,751.1,01.17,0.508
2015-09-28 00:06:00,1847E-3,5C000400,-0724,0826,12212,027.4,045.4,0.258,751.1,01.17,0.508
2015-09-28 00:07:00,1956E-3,5C000400,-0724,0826,12278,027.3,045.4,0.257,751.0,01.17,0.508
2015-09-28 00:08:00,1936E-3,5C000400,-0724,0825,12294,027.3,045.4,0.257,751.1,01.17,0.508
2015-09-28 00:09:00,2068E-3,5C000400,-0724,0825,12083,027.4,045.4,0.257,751.0,01.17,0.508
2015-09-28 00:10:00,1931E-3,5C000400,-0724,0826,12152,027.3,045.4,0.257,751.0,01.17,0.508
2015-09-28 00:11:00,1968E-3,5C000400,-0724,0826,12279,027.3,045.4,0.257,751.1,01.17,0.508
2015-09-28 00:12:00,1931E-3,5C000400,-0724,0825,12327,027.4,045.4,0.258,751.1,01.17,0.508
2015-09-28 00:13:00,1945E-3,5C000400,-0724,0825,12291,027.4,045.4,0.257,750.9,01.17,0.508
2015-09-28 00:14:00,2069E-3,5C000400,-0724,0825,12264,027.4,045.4,0.257,750.9,01.17,0.508
2015-09-28 00:15:00,1851E-3,5C000400,-0724,0825,12167,027.4,045.4,0.257,751.0,01.17,0.508
2015-09-28 00:16:00,2053E-3,5C000400,-0724,0825,12140,027.4,045.4,0.257,751.0,01.17,0.508
2015-09-28 00:17:00,1977E-3,5C000400,-0724,0825,12308,027.4,045.4,0.258,751.0,01.17,0.508
2015-09-28 00:18:00,2019E-3,5C000400,-0724,0825,12157,027.4,045.4,0.257,751.0,01.17,0.508
2015-09-28 00:19:00,1872E-3,5C000400,-0724,0826,12221,027.4,045.4,0.257,751.0,01.17,0.508
2015-09-28 00:20:00,2057E-3,5C000400,-0724,0825,12142,027.4,045.4,0.257,750.8,01.17,0.508
2015-09-28 00:21:00,1964E-3,5C000400,-0724,0825,12250,027.4,045.4,0.257,751.0,01.17,0.508
2015-09-28 00:22:00,2124E-3,5C000400,-0724,0825,12058,027.4,045.4,0.257,751.0,01.17,0.508
2015-09-28 00:23:00,1942E-3,5C000400,-0724,0826,12288,027.4,045.4,0.257,750.9,01.17,0.508
2015-09-28 00:24:00,1848E-3,5C000400,-0724,0825,12265,027.4,045.4,0.257,750.9,01.17,0.508
2015-09-28 00:25:00,1918E-3,5C000400,-0724,0826,12204,027.4,045.4,0.257,750.9,01.17,0.508
2015-09-28 00:26:00,1957E-3,5C000400,-0724,0826,12294,027.4,045.4,0.257,750.9,01.17,0.508
2015-09-28 00:27:00,1924E-3,5C000400,-0724,0826,12265,027.4,045.4,0.257,750.9,01.17,0.508
2015-09-28 00:28:00,1939E-3,5C000400,-0724,0825,12143,027.4,045.4,0.257,751.0,01.17,0.508
2015-09-28 00:29:00,1923E-3,5C000400,-0724,0825,12313,027.4,045.4,0.257,750.8,01.17,0.508
2015-09-28 00:30:00,2017E-3,5C000400,-0724,0826,12320,027.4,045.4,0.257,750.9,01.17,0.508
2015-09-28 00:31:00,2073E-3,5C000400,-0724,0825,12242,027.4,045.4,0.257,750.8,01.17,0.508
2015-09-28 00:32:00,1965E-3,5C000400,-0724,0825,12182,027.4,045.4,0.257,750.9,01.17,0.508
2015-09-28 00:33:00,1840E-3,5C000400,-0724,0827,12296,027.4,045.4,0.257,750.8,01.17,0.508
2015-09-28 00:34:00,1833E-3,5C000400,-0724,0825,12257,027.4,045.4,0.257,750.8,01.17,0.508
2015-09-28 00:35:00,1998E-3,5C000400,-0724,0826,12409,027.4,045.4,0.257,750.6,01.17,0.508
2015-09-28 00:36:00,1961E-3,5C000400,-0724,0826,12231,027.4,045.4,0.257,750.8,01.17,0.508
2015-09-28 00:37:00,1977E-3,5C000400,-0724,0825,12235,027.4,045.4,0.258,750.7,01.17,0.508
2015-09-28 00:38:00,2035E-3,5C000400,-0724,0826,12309,027.4,045.4,0.258,750.7,01.17,0.508
2015-09-28 00:39:00,1999E-3,5C000400,-0724,0825,12120,027.4,045.4,0.258,750.7,01.17,0.508
2015-09-28 00:40:00,1914E-3,5C000400,-0724,0825,12352,027.4,045.4,0.257,750.7,01.17,0.508
2015-09-28 00:41:00,1901E-3,5C000400,-0724,0825,12266,027.4,045.4,0.257,750.6,01.17,0.508
2015-09-28 00:42:00,1790E-3,5C000400,-0724,0826,12270,027.4,045.4,0.257,750.5,01.17,0.508
2015-09-28 00:43:00,1984E-3,5C000400,-0724,0825,12280,027.4,045.4,0.257,750.4,01.17,0.508
2015-09-28 00:44:00,1941E-3,5C000400,-0724,0825,12487,027.5,045.4,0.257,750.4,01.17,0.508
2015-09-28 00:45:00,1921E-3,5C000400,-0724,0825,12210,027.5,045.4,0.257,750.4,01.17,0.508
2015-09-28 00:46:00,2056E-3,5C000400,-0724,0826,12385,027.4,045.4,0.257,750.3,01.17,0.508
2015-09-28 00:47:00,1957E-3,5C000400,-0724,0825,12411,027.5,045.4,0.257,750.3,01.17,0.508
2015-09-28 00:48:00,1918E-3,5C000400,-0724,0826,12100,027.5,045.4,0.257,750.2,01.17,0.508
2015-09-28 00:49:00,1931E-3,5C000400,-0724,0825,12153,027.5,045.4,0.257,750.2,01.17,0.508
2015-09-28 00:50:00,2134E-3,5C000400,-0724,0825,12277,027.4,045.4,0.257,750.2,01.17,0.508
2015-09-28 00:51:00,1881E-3,5C000400,-0724,0825,12257,027.2,045.4,0.257,750.3,01.17,0.508
2015-09-28 00:52:00,2064E-3,5C000400,-0724,0825,12268,027.1,045.4,0.257,750.2,01.17,0.508
2015-09-28 00:53:00,1921E-3,5C000400,-0724,0825,12299,027.0,045.4,0.257,750.2,01.17,0.508
2015-09-28 00:54:00,2072E-3,5C000400,-0724,0825,12177,026.8,045.4,0.258,750.3,01.17,0.508
2015-09-28 00:55:00,1910E-3,5C000400,-0724,0825,12253,026.9,045.4,0.257,750.3,01.17,0.508
2015-09-28 00:56:00,1856E-3,5C000400,-0724,0826,12344,026.9,045.4,0.258,750.1,01.17,0.508
2015-09-28 00:57:00,1836E-3,5C000400,-0724,0826,12201,027.0,045.4,0.257,750.2,01.17,0.508
2015-09-28 00:58:00,1978E-3,5C000400,-0724,0825,12280,027.0,045.4,0.258,750.1,01.17,0.508
2015-09-28 00:59:00,1949E-3,5C000400,-0724,0824,12238,027.1,045.4,0.258,749.9,01.17,0.508
2015-09-28 01:00:00,1917E-3,5C000400,-0724,0825,12307,027.1,045.4,0.258,750.1,01.17,0.508
2015-09-28 01:01:00,1920E-3,5C000400,-0724,0825,12313,027.1,045.4,0.258,749.9,01.17,0.508
2015-09-28 01:02:00,2047E-3,5C000400,-0724,0824,12024,027.1,045.4,0.258,750.0,01.17,0.508
2015-09-28 01:03:00,2049E-3,5C000400,-0724,0825,12091,027.2,045.4,0.258,749.9,01.17,0.508
2015-09-28 01:04:00,2004E-3,5C000400,-0724,0825,12198,027.2,045.4,0.257,750.0,01.17,0.508
2015-09-28 01:05:00,1869E-3,5C000400,-0724,0825,12196,027.3,045.4,0.258,749.9,01.17,0.508
2015-09-28 01:06:00,2008E-3,5C000400,-0724,0824,12226,027.3,045.4,0.258,749.7,01.17,0.508
2015-09-28 01:07:00,1942E-3,5C000400,-0724,0825,12253,027.3,045.4,0.257,749.9,01.17,0.508
2015-09-28 01:08:00,1892E-3,5C000400,-0724,0825,12201,027.3,045.4,0.258,749.9,01.17,0.508
2015-09-28 01:09:00,1998E-3,5C000400,-0724,0825,12296,027.4,045.4,0.257,749.8,01.17,0.508
2015-09-28 01:10:00,2031E-3,5C000400,-0724,0825,12254,027.4,045.4,0.258,749.7,01.17,0.508
2015-09-28 01:11:00,1912E-3,5C000400,-0724,0825,12132,027.4,045.4,0.257,749.8,01.17,0.508
2015-09-28 01:12:00,1949E-3,5C000400,-0724,0825,12333,027.5,045.4,0.257,749.8,01.17,0.508
2015-09-28 01:13:00,1869E-3,5C000400,-0724,0826,12213,027.5,045.4,0.257,749.6,01.17,0.508
2015-09-28 01:14:00,1897E-3,5C000400,-0724,0825,12291,027.5,045.4,0.257,749.7,01.17,0.508
2015-09-28 01:15:00,1909E-3,5C000400,-0724,0825,12344,027.5,045.4,0.257,749.6,01.17,0.508
2015-09-28 01:16:00,1982E-3,5C000400,-0724,0826,12249,027.6,045.4,0.257,749.5,01.17,0.508
2015-09-28 01:17:00,1940E-3,5C000400,-0724,0825,12248,027.6,045.4,0.257,749.7,01.17,0.508
2015-09-28 01:18:00,1760E-3,5C000400,-0724,0825,12151,027.6,045.4,0.257,749.6,01.17,0.508
2015-09-28 01:19:00,1983E-3,5C000400,-0724,0825,12272,027.7,045.4,0.256,749.4,01.17,0.508
2015-09-28 01:20:00,1897E-3,5C000400,-0724,0825,12403,027.7,045.4,0.257,749.3,01.17,0.508
2015-09-28 01:21:00,1995E-3,5C000400,-0724,0825,12208,027.7,045.4,0.257,749.5,01.17,0.508
2015-09-28 01:22:00,1910E-3,5C000400,-0724,0825,12109,027.7,045.4,0.257,749.4,01.17,0.508
2015-09-28 01:23:00,1962E-3,5C000400,-0724,0825,12168,027.8,045.4,0.256,749.4,01.17,0.508
2015-09-28 01:24:00,1921E-3,5C000400,-0724,0825,12240,027.8,045.4,0.257,749.5,01.17,0.508
2015-09-28 01:25:00,1876E-3,5C000400,-0724,0826,12274,027.9,045.4,0.257,749.5,01.17,0.508
2015-09-28 01:26:00,1897E-3,5C000400,-0724,0826,12347,027.9,045.4,0.256,749.3,01.17,0.508
2015-09-28 01:27:00,1890E-3,5C000400,-0724,0825,12300,027.9,045.4,0.256,749.3,01.17,0.508
2015-09-28 01:28:00,1795E-3,5C000400,-0724,0825,12321,027.9,045.4,0.257,749.4,01.17,0.508
2015-09-28 01:29:00,1901E-3,5C000400,-0724,0825,12257,028.0,045.4,0.257,749.4,01.17,0.508
2015-09-28 01:30:00,1921E-3,5C000400,-0724,0825,12243,028.0,045.4,0.257,749.4,01.17,0.508
2015-09-28 01:31:00,1899E-3,5C000400,-0724,0825,12238,028.0,045.4,0.256,749.4,01.17,0.508
2015-09-28 01:32:00,1874E-3,5C000400,-0724,0825,12273,028.0,045.4,0.256,749.3,01.17,0.508
2015-09-28 01:33:00,1883E-3,5C000400,-0724,0825,12406,028.0,045.4,0.256,749.3,01.17,0.508
2015-09-28 01:34:00,2031E-3,5C000400,-0724,0825,12350,028.1,045.4,0.256,749.3,01.17,0.508
2015-09-28 01:35:00,1966E-3,5C000400,-0724,0825,12281,028.1,045.4,0.256,749.3,01.17,0.508
2015-09-28 01:36:00,1912E-3,5C000400,-0724,0825,12257,028.1,045.4,0.256,749.2,01.17,0.508
2015-09-28 01:37:00,1943E-3,5C000400,-0724,0825,12209,028.1,045.4,0.256,749.2,01.17,0.508
2015-09-28 01:38:00,2003E-3,5C000400,-0724,0825,12141,028.1,045.4,0.256,749.3,01.17,0.508
2015-09-28 01:39:00,1905E-3,5C000400,-0724,0825,12114,028.2,045.4,0.256,748.9,01.17,0.508
2015-09-28 01:40:00,1978E-3,5C000400,-0724,0825,12269,028.2,045.4,0.255,749.1,01.17,0.508
2015-09-28 01:41:00,1894E-3,5C000400,-0724,0825,12169,028.2,045.4,0.256,749.1,01.17,0.508
2015-09-28 01:42:00,1887E-3,5C000400,-0724,0825,12298,028.2,045.4,0.255,749.0,01.17,0.508
2015-09-28 01:43:00,1944E-3,5C000400,-0724,0825,12356,028.3,045.4,0.256,749.2,01.17,0.508
2015-09-28 01:44:00,1892E-3,5C000400,-0724,0825,12215,028.3,045.4,0.256,748.8,01.17,0.508
2015-09-28 01:45:00,1942E-3,5C000400,-0724,0826,12244,028.3,045.4,0.256,749.0,01.17,0.508
2015-09-28 01:46:00,1946E-3,5C000400,-0724,0825,12096,028.4,045.4,0.256,749.0,01.17,0.508
2015-09-28 01:47:00,1788E-3,5C000400,-0724,0825,12204,028.4,045.4,0.256,749.0,01.17,0.508
2015-09-28 01:48:00,2128E-3,5C000400,-0724,0825,12167,028.4,045.4,0.256,749.3,01.17,0.508
2015-09-28 01:49:00,2000E-3,5C000400,-0724,0825,12363,028.4,045.4,0.256,749.0,01.17,0.508
2015-09-28 01:50:00,1987E-3,5C000400,-0724,0825,12171,028.4,045.4,0.256,749.3,01.17,0.508
2015-09-28 01:51:00,1816E-3,5C000400,-0724,0825,12343,028.4,045.4,0.255,749.1,01.17,0.508
2015-09-28 01:52:00,1980E-3,5C000400,-0724,0825,12234,028.4,045.4,0.255,749.3,01.17,0.508
2015-09-28 01:53:00,1929E-3,5C000400,-0724,0825,12210,028.5,045.4,0.255,749.2,01.17,0.508
2015-09-28 01:54:00,1861E-3,5C000400,-0724,0825,12287,028.5,045.4,0.255,749.2,01.17,0.508
2015-09-28 01:55:00,1942E-3,5C000400,-0724,0825,12338,028.5,045.4,0.255,749.2,01.17,0.508
2015-09-28 01:56:00,2154E-3,5C000400,-0724,0825,12268,028.5,045.4,0.255,749.3,01.17,0.508
2015-09-28 01:57:00,1809E-3,5C000400,-0724,0826,12286,028.5,045.5,0.255,749.1,01.17,0.508
2015-09-28 01:58:00,2025E-3,5C000400,-0724,0825,12165,028.5,045.4,0.255,749.2,01.17,0.508
2015-09-28 01:59:00,1943E-3,5C000400,-0724,0827,12186,028.6,045.5,0.255,749.4,01.17,0.508
2015-09-28 02:00:00,2013E-3,5C000400,-0724,0825,12167,028.6,045.5,0.255,749.3,01.17,0.508
2015-09-28 02:01:00,1958E-3,5C000400,-0724,0825,12259,028.6,045.4,0.255,749.4,01.17,0.508
2015-09-28 02:02:00,1810E-3,5C000400,-0724,0825,12200,028.6,045.5,0.255,749.3,01.17,0.508
2015-09-28 02:03:00,1902E-3,5C000400,-0724,0826,12171,028.6,045.5,0.255,749.4,01.17,0.508
2015-09-28 02:04:00,1881E-3,5C000400,-0724,0825,12295,028.7,045.5,0.255,749.3,01.17,0.508
2015-09-28 02:05:00,2132E-3,5C000400,-0724,0825,12136,028.7,045.5,0.255,749.4,01.17,0.508
2015-09-28 02:06:00,2011E-3,5C000400,-0724,0824,12277,028.7,045.4,0.255,749.4,01.17,0.508
2015-09-28 02:07:00,1947E-3,5C000400,-0724,0825,12314,028.7,045.4,0.255,749.2,01.17,0.508
2015-09-28 02:08:00,1919E-3,5C000400,-0724,0825,12138,028.7,045.4,0.255,749.5,01.17,0.508
2015-09-28 02:09:00,2024E-3,5C000400,-0724,0826,12145,028.7,045.5,0.255,749.6,01.17,0.508
2015-09-28 02:10:00,1882E-3,5C000400,-0724,0825,12252,028.8,045.4,0.255,749.5,01.17,0.508
2015-09-28 02:11:00,1885E-3,5C000400,-0724,0826,12258,028.8,045.4,0.255,749.6,01.17,0.508
2015-09-28 02:12:00,1937E-3,5C000400,-0724,0826,12196,028.8,045.4,0.255,749.6,01.17,0.508
2015-09-28 02:13:00,1946E-3,5C000400,-0724,0825,12310,028.8,045.5,0.255,749.7,01.17,0.508
2015-09-28 02:14:00,1836E-3,5C000400,-0724,0825,12279,028.8,045.4,0.255,749.6,01.17,0.508
2015-09-28 02:15:00,2026E-3,5C000400,-0724,0825,12390,028.8,045.5,0.255,749.5,01.17,0.508
2015-09-28 02:16:00,1911E-3,5C000400,-0724,0826,12080,028.8,045.4,0.255,749.7,01.17,0.508
2015-09-28 02:17:00,1923E-3,5C000400,-0724,0825,12093,028.8,045.5,0.255,749.9,01.17,0.508
2015-09-28 02:18:00,1838E-3,5C000400,-0724,0826,12339,028.9,045.5,0.255,749.8,01.17,0.508
2015-09-28 02:19:00,2090E-3,5C000400,-0724,0824,12205,028.9,045.5,0.255,749.9,01.17,0.508
2015-09-28 02:20:00,1889E-3,5C000400,-0724,0825,12196,028.9,045.5,0.255,749.8,01.17,0.508
2015-09-28 02:21:00,1907E-3,5C000400,-0724,0825,12325,028.9,045.4,0.254,749.8,01.17,0.508
2015-09-28 02:22:00,2025E-3,5C000400,-0724,0825,12319,028.9,045.4,0.254,749.9,01.17,0.508
2015-09-28 02:23:00,1885E-3,5C000400,-0724,0825,12318,028.9,045.4,0.255,749.9,01.17,0.508
2015-09-28 02:24:00,1917E-3,5C000400,-0724,0826,12107,029.0,045.5,0.255,749.8,01.17,0.508
2015-09-28 02:25:00,1931E-3,5C000400,-0724,0826,12256,029.0,045.5,0.255,749.9,01.17,0.508
2015-09-28 02:26:00,2022E-3,5C000400,-0724,0825,12339,029.0,045.5,0.255,750.0,01.17,0.508
2015-09-28 02:27:00,1978E-3,5C000400,-0724,0826,12315,029.0,045.5,0.255,750.0,01.17,0.508
2015-09-28 02:28:00,2109E-3,5C000400,-0724,0825,12221,029.0,045.5,0.255,749.9,01.17,0.508
2015-09-28 02:29:00,1917E-3,5C000400,-0724,0826,12195,029.0,045.5,0.255,749.9,01.17,0.508
2015-09-28 02:30:00,1858E-3,5C000400,-0724,0826,12201,029.0,045.5,0.255,750.1,01.17,0.508
2015-09-28 02:31:00,1956E-3,5C000400,-0724,0825,12166,029.1,045.5,0.255,750.0,01.17,0.508
2015-09-28 02:32:00,2056E-3,5C000400,-0724,0825,12153,029.1,045.4,0.255,750.1,01.17,0.508
2015-09-28 02:33:00,1883E-3,5C000400,-0724,0826,12274,029.0,045.4,0.254,750.0,01.17,0.508
2015-09-28 02:34:00,1905E-3,5C000400,-0724,0825,12149,029.1,045.5,0.254,750.0,01.17,0.508
2015-09-28 02:35:00,1871E-3,5C000400,-0724,0825,12244,029.1,045.5,0.254,750.0,01.17,0.508
2015-09-28 02:36:00,1973E-3,5C000400,-0724,0826,12190,029.1,045.4,0.254,750.0,01.17,0.508
2015-09-28 02:37:00,2053E-3,5C000400,-0724,0825,12188,029.1,045.4,0.255,750.0,01.17,0.508
2015-09-28 02:38:00,2004E-3,5C000400,-0724,0826,12287,029.1,045.5,0.255,750.0,01.17,0.508
2015-09-28 02:39:00,1830E-3,5C000400,-0724,0826,12171,029.1,045.5,0.255,749.9,01.17,0.508
2015-09-28 02:40:00,2004E-3,5C000400,-0724,0825,12334,029.2,045.4,0.254,749.9,01.17,0.508
2015-09-28 02:41:00,2032E-3,5C000400,-0724,0825,12252,029.2,045.5,0.254,750.0,01.17,0.508
2015-09-28 02:42:00,1826E-3,5C000400,-0724,0825,12218,029.2,045.5,0.254,749.9,01.17,0.508
2015-09-28 02:43:00,1859E-3,5C000400,-0724,0826,12220,029.2,045.5,0.254,750.1,01.17,0.508
2015-09-28 02:44:00,1953E-3,5C000400,-0724,0826,12267,029.2,045.5,0.254,750.0,01.17,0.508
2015-09-28 02:45:00,1860E-3,5C000400,-0724,0826,12193,029.2,045.5,0.254,750.1,01.17,0.508
2015-09-28 02:46:00,1887E-3,5C000400,-0724,0825,12259,029.3,045.5,0.254,749.9,01.17,0.508
2015-09-28 02:47:00,1954E-3,5C000400,-0724,0826,12298,029.3,045.5,0.254,749.9,01.17,0.508
2015-09-28 02:48:00,1987E-3,5C000400,-0724,0825,12191,029.3,045.5,0.254,749.9,01.17,0.508
2015-09-28 02:49:00,1939E-3,5C000400,-0724,0826,12307,029.3,045.5,0.254,750.0,01.17,0.508
2015-09-28 02:50:00,2166E-3,5C000400,-0724,0825,12236,029.3,045.5,0.254,750.1,01.17,0.508
2015-09-28 02:51:00,2109E-3,5C000400,-0724,0826,12192,029.3,045.5,0.254,749.8,01.17,0.508
2015-09-28 02:52:00,1922E-3,5C000400,-0724,0827,12217,029.3,045.5,0.254,749.9,01.17,0.508
2015-09-28 02:53:00,2135E-3,5C000400,-0724,0826,12184,029.3,045.5,0.254,749.9,01.17,0.508
2015-09-28 02:54:00,1926E-3,5C000400,-0724,0825,12123,029.4,045.5,0.254,749.9,01.17,0.508
2015-09-28 02:55:00,1918E-3,5C000400,-0724,0825,12128,029.4,045.5,0.254,749.9,01.17,0.508
2015-09-28 02:56:00,1839E-3,5C000400,-0724,0826,12414,029.4,045.5,0.254,749.8,01.17,0.508
2015-09-28 02:57:00,2060E-3,5C000400,-0724,0826,12366,029.4,045.5,0.254,749.9,01.17,0.508
2015-09-28 02:58:00,2067E-3,5C000400,-0724,0826,12177,029.4,045.5,0.254,749.7,01.17,0.508
2015-09-28 02:59:00,1964E-3,5C000400,-0724,0825,12119,029.4,045.5,0.254,749.8,01.17,0.508
2015-09-28 03:00:00,2034E-3,5C000400,-0724,0826,12277,029.4,045.5,0.254,749.9,01.17,0.508
2015-09-28 03:01:00,1978E-3,5C000400,-0724,0826,12233,029.5,045.5,0.254,749.7,01.17,0.508
2015-09-28 03:02:00,2010E-3,5C000400,-0724,0826,12219,029.5,045.5,0.253,749.7,01.17,0.508
2015-09-28 03:03:00,2086E-3,5C000400,-0724,0825,12234,029.5,045.5,0.254,749.7,01.17,0.508
2015-09-28 03:04:00,1887E-3,5C000400,-0724,0826,12220,029.5,045.5,0.254,749.7,01.17,0.508
2015-09-28 03:05:00,1935E-3,5C000400,-0724,0826,12285,029.5,045.5,0.254,749.8,01.17,0.508
2015-09-28 03:06:00,2060E-3,5C000400,-0724,0826,12269,029.5,045.5,0.254,749.8,01.17,0.508
2015-09-28 03:07:00,1898E-3,5C000400,-0724,0826,12275,029.5,045.5,0.254,749.8,01.17,0.508
2015-09-28 03:08:00,2059E-3,5C000400,-0724,0826,12159,029.6,045.5,0.253,749.8,01.17,0.508
2015-09-28 03:09:00,1915E-3,5C000400,-0724,0826,12382,029.6,045.5,0.253,749.9,01.17,0.508
2015-09-28 03:10:00,1878E-3,5C000400,-0724,0826,12054,029.6,045.5,0.254,749.8,01.17,0.508
2015-09-28 03:11:00,2010E-3,5C000400,-0724,0825,12258,029.6,045.5,0.254,749.9,01.17,0.508
2015-09-28 03:12:00,2005E-3,5C000400,-0724,0825,12283,029.6,045.5,0.254,749.8,01.17,0.508
2015-09-28 03:13:00,1954E-3,5C000400,-0724,0826,12228,029.6,045.5,0.254,749.8,01.17,0.508
2015-09-28 03:14:00,2043E-3,5C000400,-0724,0825,12208,029.7,045.5,0.254,749.9,01.17,0.508
2015-09-28 03:15:00,1987E-3,5C000400,-0724,0825,12230,029.6,045.5,0.253,749.8,01.17,0.508
2015-09-28 03:16:00,2014E-3,5C000400,-0724,0826,12215,029.7,045.5,0.253,749.8,01.17,0.508
2015-09-28 03:17:00,1972E-3,5C000400,-0724,0826,12358,029.7,045.5,0.253,749.8,01.17,0.508
2015-09-28 03:18:00,1784E-3,5C000400,-0724,0826,12402,029.7,045.5,0.253,749.8,01.17,0.508
2015-09-28 03:19:00,2061E-3,5C000400,-0724,0825,12122,029.7,045.5,0.254,749.9,01.17,0.508
2015-09-28 03:20:00,2004E-3,5C000400,-0724,0825,12250,029.7,045.5,0.254,749.9,01.17,0.508
2015-09-28 03:21:00,1897E-3,5C000400,-0724,0826,12338,029.7,045.5,0.254,749.8,01.17,0.508
2015-09-28 03:22:00,2059E-3,5C000400,-0724,0825,12151,029.8,045.5,0.254,749.9,01.17,0.508
2015-09-28 03:23:00,1935E-3,5C000400,-0724,0825,12258,029.8,045.5,0.253,749.8,01.17,0.508
2015-09-28 03:24:00,1982E-3,5C000400,-0724,0825,12238,029.7,045.5,0.253,749.8,01.17,0.508
2015-09-28 03:25:00,1904E-3,5C000400,-0724,0825,12178,029.8,045.5,0.253,749.8,01.17,0.508
2015-09-28 03:26:00,2037E-3,5C000400,-0724,0826,12195,029.8,045.5,0.253,749.8,01.17,0.508
2015-09-28 03:27:00,2023E-3,5C000400,-0724,0826,12342,029.8,045.5,0.253,749.8,01.17,0.508
2015-09-28 03:28:00,1928E-3,5C000400,-0724,0826,12169,029.8,045.5,0.253,749.8,01.17,0.508
2015-09-28 03:29:00,1913E-3,5C000400,-0724,0825,12167,029.9,045.5,0.253,749.7,01.17,0.508
2015-09-28 03:30:00,1949E-3,5C000400,-0724,0826,12303,029.9,045.5,0.253,749.7,01.17,0.508
2015-09-28 03:31:00,2051E-3,5C000400,-0724,0826,12106,029.9,045.5,0.253,749.7,01.17,0.508
2015-09-28 03:32:00,1919E-3,5C000400,-0724,0825,12264,029.9,045.5,0.253,749.7,01.17,0.508
2015-09-28 03:33:00,2024E-3,5C000400,-0724,0826,12223,029.9,045.5,0.253,749.7,01.17,0.508
2015-09-28 03:34:00,1970E-3,5C000400,-0724,0825,12238,029.9,045.5,0.253,749.7,01.17,0.508
2015-09-28 03:35:00,1917E-3,5C000400,-0724,0826,12230,029.9,045.5,0.253,749.7,01.17,0.508
2015-09-28 03:36:00,2061E-3,5C000400,-0724,0826,12248,029.9,045.5,0.253,749.7,01.17,0.508
2015-09-28 03:37:00,1840E-3,5C000400,-0724,0826,12207,029.9,045.5,0.253,749.7,01.17,0.508
2015-09-28 03:38:00,1924E-3,5C000400,-0724,0825,12215,030.0,045.5,0.253,749.6,01.17,0.508
2015-09-28 03:39:00,1892E-3,5C000400,-0724,0825,12387,030.0,045.5,0.253,749.5,01.17,0.508
2015-09-28 03:40:00,2027E-3,5C000400,-0724,0826,12361,030.0,045.5,0.253,749.6,01.17,0.508
2015-09-28 03:41:00,1956E-3,5C000400,-0724,0825,12214,030.0,045.5,0.253,749.6,01.17,0.508
2015-09-28 03:42:00,1889E-3,5C000400,-0724,0826,12254,030.0,045.5,0.253,749.7,01.17,0.508
2015-09-28 03:43:00,1941E-3,5C000400,-0724,0826,12318,030.0,045.5,0.253,749.6,01.17,0.508
2015-09-28 03:44:00,2066E-3,5C000400,-0724,0825,12248,030.0,045.5,0.253,749.8,01.17,0.508
2015-09-28 03:45:00,1926E-3,5C000400,-0724,0826,12368,030.0,045.5,0.252,749.7,01.17,0.508
2015-09-28 03:46:00,1854E-3,5C000400,-0724,0826,12300,030.1,045.5,0.253,749.7,01.17,0.508
2015-09-28 03:47:00,1968E-3,5C000400,-0724,0826,12256,030.1,045.5,0.253,749.6,01.17,0.508
2015-09-28 03:48:00,1899E-3,5C000400,-0724,0826,12329,030.1,045.5,0.253,749.7,01.17,0.508
2015-09-28 03:49:00,2059E-3,5C000400,-0724,0826,12295,030.1,045.5,0.253,749.7,01.17,0.508
2015-09-28 03:50:00,2016E-3,5C000400,-0724,0825,12238,030.1,045.5,0.253,749.6,01.17,0.508
2015-09-28 03:51:00,2083E-3,5C000400,-0724,0826,12178,030.1,045.5,0.252,749.6,01.17,0.508
2015-09-28 03:52:00,1953E-3,5C000400,-0724,0826,12292,030.1,045.5,0.252,749.7,01.17,0.508
2015-09-28 03:53:00,2058E-3,5C000400,-0724,0826,12221,030.1,045.5,0.253,749.7,01.17,0.508
2015-09-28 03:54:00,1906E-3,5C000400,-0724,0826,12299,030.2,045.5,0.253,749.6,01.17,0.508
2015-09-28 03:55:00,2066E-3,5C000400,-0724,0825,12206,030.2,045.5,0.253,749.6,01.17,0.508
2015-09-28 03:56:00,1999E-3,5C000400,-0724,0826,12311,030.2,045.5,0.253,749.6,01.17,0.508
2015-09-28 03:57:00,1799E-3,5C000400,-0724,0825,12220,030.2,045.5,0.252,749.6,01.17,0.508
2015-09-28 03:58:00,2002E-3,5C000400,-0724,0826,12364,030.2,045.5,0.252,749.4,01.17,0.508
2015-09-28 03:59:00,1886E-3,5C000400,-0724,0826,12176,030.2,045.5,0.252,749.5,01.17,0.508
2015-09-28 04:00:00,1965E-3,5C000400,-0724,0826,12194,030.2,045.5,0.252,749.4,01.17,0.508
2015-09-28 04:01:00,1922E-3,5C000400,-0724,0826,12310,030.3,045.5,0.253,749.3,01.17,0.508
2015-09-28 04:02:00,1960E-3,5C000400,-0724,0826,12322,030.3,045.5,0.252,749.4,01.17,0.508
2015-09-28 04:03:00,2069E-3,5C000400,-0724,0827,12256,030.3,045.5,0.252,749.4,01.17,0.508
2015-09-28 04:04:00,1833E-3,5C000400,-0724,0826,12083,030.3,045.5,0.252,749.4,01.17,0.508
2015-09-28 04:05:00,1851E-3,5C000400,-0724,0826,12248,030.3,045.5,0.252,749.4,01.17,0.508
2015-09-28 04:06:00,1953E-3,5C000400,-0724,0826,12151,030.3,045.5,0.252,749.3,01.17,0.508
2015-09-28 04:07:00,1916E-3,5C000400,-0724,0826,12253,030.3,045.5,0.252,749.4,01.17,0.508
2015-09-28 04:08:00,1961E-3,5C000400,-0724,0826,12316,030.4,045.5,0.252,749.3,01.17,0.508
2015-09-28 04:09:00,2052E-3,5C000400,-0724,0826,12284,030.4,045.5,0.252,749.3,01.17,0.508
2015-09-28 04:10:00,1988E-3,5C000400,-0724,0826,12305,030.4,045.5,0.252,749.3,01.17,0.508
2015-09-28 04:11:00,2065E-3,5C000400,-0724,0827,12198,030.4,045.5,0.252,749.3,01.17,0.508
2015-09-28 04:12:00,1956E-3,5C000400,-0724,0826,12200,030.4,045.5,0.252,749.3,01.17,0.508
2015-09-28 04:13:00,1969E-3,5C000400,-0724,0826,12257,030.4,045.5,0.252,749.3,01.17,0.508
2015-09-28 04:14:00,1952E-3,5C000400,-0724,0826,12241,030.4,045.5,0.252,749.3,01.17,0.508
2015-09-28 04:15:00,2126E-3,5C000400,-0724,0825,12230,030.4,045.5,0.252,749.3,01.17,0.508
2015-09-28 04:16:00,1947E-3,5C000400,-0724,0826,12230,030.4,045.5,0.252,749.2,01.17,0.508
2015-09-28 04:17:00,2059E-3,5C000400,-0724,0826,12345,030.5,045.5,0.252,749.2,01.17,0.508
2015-09-28 04:18:00,2013E-3,5C000400,-0724,0826,12261,030.5,045.5,0.252,749.0,01.17,0.508
2015-09-28 04:19:00,1980E-3,5C000400,-0724,0826,12209,030.5,045.5,0.252,749.1,01.17,0.508
2015-09-28 04:20:00,1902E-3,5C000400,-0724,0826,12329,030.5,045.5,0.252,749.1,01.17,0.508